2024/01/07 00:00:00, 0.0,-0.4
2024/01/07 00:10:00, 0.0,-0.6
2024/01/07 00:20:00, 0.0,-0.7
2024/01/07 00:30:00, 0.0,-0.6
2024/01/07 00:40:00, 0.3,-0.7
2024/01/07 00:50:00, 0.5,-0.8
2024/01/07 01:00:00, 0.5,-0.8
2024/01/07 01:10:00, 0.9,-0.8
2024/01/07 01:20:00, 1.4,-0.9
2024/01/07 01:30:00, 1.3,-0.6
2024/01/07 01:40:00, 1.4,-1.1
2024/01/07 01:50:00, 1.4,-1.3
2024/01/07 02:00:00, 1.5,-1.4
2024/01/07 02:10:00, 1.5,-1.4
2024/01/07 02:20:00, 1.8,-1.5
2024/01/07 02:30:00, 1.9,-1.5
2024/01/07 02:40:00, 2.1,-1.7
2024/01/07 02:50:00, 2.2,-1.7
2024/01/07 03:00:00, 2.3,-1.6
2024/01/07 03:10:00, 3.3,-1.8
2024/01/07 03:20:00, 3.4,-2.0
2024/01/07 03:30:00, 3.4,-2.1
2024/01/07 03:40:00, 3.6,-1.7
2024/01/07 03:50:00, 4.3,-2.0
2024/01/07 04:00:00, 4.4,-1.5
2024/01/07 04:10:00, 4.6,-1.9
2024/01/07 04:20:00, 5.7,-1.9
2024/01/07 04:30:00, 6.5,-1.8
2024/01/07 04:40:00, 7.1,-2.1
2024/01/07 04:50:00, 7.0,-2.2
2024/01/07 05:00:00, 6.8,-2.0
2024/01/07 05:10:00, 6.7,-2.3
2024/01/07 05:20:00, 6.7,-2.3
2024/01/07 05:30:00, 6.7,-2.7
2024/01/07 05:40:00, 6.6,-2.8
2024/01/07 05:50:00, 6.6,-2.7
2024/01/07 06:00:00, 6.5,-2.6
2024/01/07 06:10:00, 6.5,-2.4
2024/01/07 06:20:00, 6.4,-2.5
2024/01/07 06:30:00, 6.3,-2.9
2024/01/07 06:40:00, 6.3,-3.3
2024/01/07 06:50:00, 6.3,-3.1
2024/01/07 07:00:00, 6.2,-2.9
2024/01/07 07:10:00, 6.3,-3.5
2024/01/07 07:20:00, 6.3,-3.8
2024/01/07 07:30:00, 6.2,-3.5
2024/01/07 07:40:00, 6.2,-3.2
2024/01/07 07:50:00, 6.2,-3.1
2024/01/07 08:00:00, 6.3,-2.5
2024/01/07 08:10:00, 6.3,-2.3
2024/01/07 08:20:00, 6.3,-2.2
2024/01/07 08:30:00, 6.3,-2.1
2024/01/07 08:40:00, 6.3,-1.4
2024/01/07 08:50:00, 6.2,-1.2
2024/01/07 09:00:00, 6.1,-0.9
2024/01/07 09:10:00, 6.1,-0.5
2024/01/07 09:20:00, 6.1,-0.5
2024/01/07 09:30:00, 5.9,-0.8
2024/01/07 09:40:00, 5.9,-1.0
2024/01/07 09:50:00, 6.0,-0.5
2024/01/07 10:00:00, 5.9,-1.2
2024/01/07 10:10:00, 6.1,-0.7
2024/01/07 10:20:00, 6.9,-0.8
2024/01/07 10:30:00, 6.8,-0.4
2024/01/07 10:40:00, 7.0, 0.1
2024/01/07 10:50:00, 6.9, 0.3
2024/01/07 11:00:00, 6.8,-0.4
2024/01/07 11:10:00, 6.8,-0.1
2024/01/07 11:20:00, 6.8,-0.0
2024/01/07 11:30:00, 7.0, 0.4
2024/01/07 11:40:00, 6.9,-0.2
2024/01/07 11:50:00, 6.7,-0.2
2024/01/07 12:00:00, 6.6,-0.7
2024/01/07 12:10:00, 6.9,-0.0
2024/01/07 12:20:00, 7.1, 0.8
2024/01/07 12:30:00, 6.4, 0.4
2024/01/07 12:40:00, 6.6,-0.5
2024/01/07 12:50:00, 7.1,-0.4
2024/01/07 13:00:00, 6.8,-0.7
2024/01/07 13:10:00, 6.6,-0.6
2024/01/07 13:20:00, 6.5,-0.6
2024/01/07 13:30:00, 6.3,-0.7
2024/01/07 13:40:00, 6.4,-0.5
2024/01/07 13:50:00, 6.4,-0.1
2024/01/07 14:00:00, 6.4,-0.2
2024/01/07 14:10:00, 6.4,-0.8
2024/01/07 14:20:00, 6.4,-0.9
2024/01/07 14:30:00, 6.4,-1.0
2024/01/07 14:40:00, 6.3,-1.0
2024/01/07 14:50:00, 6.4,-0.6
2024/01/07 15:00:00, 6.3,-1.1
2024/01/07 15:10:00, 6.3,-0.8
2024/01/07 15:20:00, 6.2,-1.9
2024/01/07 15:30:00, 6.2,-2.2
2024/01/07 15:40:00, 6.2,-2.1
2024/01/07 15:50:00, 6.2,-2.1
2024/01/07 16:00:00, 6.2,-2.1
2024/01/07 16:10:00, 6.2,-2.2
2024/01/07 16:20:00, 6.1,-2.2
2024/01/07 16:30:00, 6.1,-2.3
2024/01/07 16:40:00, 6.2,-2.6
2024/01/07 16:50:00, 6.2,-2.7
2024/01/07 17:00:00, 6.1,-3.1
2024/01/07 17:10:00, 6.1,-3.3
2024/01/07 17:20:00, 6.1,-3.4
2024/01/07 17:30:00, 6.0,-3.7
2024/01/07 17:40:00, 6.1,-3.8
2024/01/07 17:50:00, 6.0,-3.3
2024/01/07 18:00:00, 6.0,-3.8
2024/01/07 18:10:00, 6.0,-3.8
2024/01/07 18:20:00, 6.0,-3.8
2024/01/07 18:30:00, 6.0,-4.1
2024/01/07 18:40:00, 6.0,-4.2
2024/01/07 18:50:00, 6.1,-4.2
2024/01/07 19:00:00, 6.2,-4.3
2024/01/07 19:10:00, 6.4,-4.7
2024/01/07 19:20:00, 6.4,-4.5
2024/01/07 19:30:00, 6.4,-4.4
2024/01/07 19:40:00, 7.0,-4.7
2024/01/07 19:50:00, 7.1,-4.8
2024/01/07 20:00:00, 7.6,-4.7
2024/01/07 20:10:00, 7.7,-4.5
2024/01/07 20:20:00, 7.8,-4.4
2024/01/07 20:30:00, 7.6,-4.6
2024/01/07 20:40:00, 7.6,-4.8
2024/01/07 20:50:00, 7.6,-4.7
2024/01/07 21:00:00, 7.5,-4.7
2024/01/07 21:10:00, 7.8,-4.8
2024/01/07 21:20:00, 9.1,-4.7
2024/01/07 21:30:00,10.2,-4.8
2024/01/07 21:40:00,11.3,-5.0
2024/01/07 21:50:00,11.7,-4.6
2024/01/07 22:00:00,12.1,-4.9
2024/01/07 22:10:00,12.3,-4.8
2024/01/07 22:20:00,12.1,-5.3
2024/01/07 22:30:00,12.2,-4.9
2024/01/07 22:40:00,12.7,-5.1
2024/01/07 22:50:00,12.8,-4.8
2024/01/07 23:00:00,13.1,-4.7
2024/01/07 23:10:00,13.0,-4.8
2024/01/07 23:20:00,13.0,-4.8
2024/01/07 23:30:00,13.0,-4.7
2024/01/07 23:40:00,12.9,-4.4
2024/01/07 23:50:00,13.2,-4.8
